Year,Month,Day,Hour,Minute,Value (Times are PST for temperature in C)
2009,04,20,00,00,7.40
2009,04,20,00,01,7.40
2009,04,20,00,02,7.40
2009,04,20,00,03,7.40
2009,04,20,00,04,7.40
2009,04,20,00,05,7.30
2009,04,20,00,06,7.30
2009,04,20,00,07,7.30
2009,04,20,00,08,7.30
2009,04,20,00,09,7.30
2009,04,20,00,10,7.30
2009,04,20,00,11,7.30
2009,04,20,00,12,7.30
2009,04,20,00,13,7.30
2009,04,20,00,14,7.30
2009,04,20,00,15,7.30
2009,04,20,00,16,7.30
2009,04,20,00,17,7.30
2009,04,20,00,18,7.30
2009,04,20,00,19,7.30
2009,04,20,00,20,7.30
2009,04,20,00,21,7.30
2009,04,20,00,22,7.30
2009,04,20,00,23,7.30
2009,04,20,00,24,7.30
2009,04,20,00,25,7.30
2009,04,20,00,26,7.30
2009,04,20,00,27,7.20
2009,04,20,00,28,7.20
2009,04,20,00,29,7.20
2009,04,20,00,30,7.20
2009,04,20,00,31,7.20
2009,04,20,00,32,7.20
2009,04,20,00,33,7.20
2009,04,20,00,34,7.20
2009,04,20,00,35,7.20
2009,04,20,00,36,7.20
2009,04,20,00,37,7.20
2009,04,20,00,38,7.20
2009,04,20,00,39,7.20
2009,04,20,00,40,7.20
2009,04,20,00,41,7.20
2009,04,20,00,42,7.20
2009,04,20,00,43,7.20
2009,04,20,00,44,7.20
2009,04,20,00,45,7.20
2009,04,20,00,46,7.10
2009,04,20,00,47,7.10
2009,04,20,00,48,7.10
2009,04,20,00,49,7.10
2009,04,20,00,50,7.10
2009,04,20,00,51,7.10
2009,04,20,00,52,7.10
2009,04,20,00,53,7.10
2009,04,20,00,54,7.00
2009,04,20,00,55,7.00
2009,04,20,00,56,7.00
2009,04,20,00,57,7.00
2009,04,20,00,58,7.00
2009,04,20,00,59,6.90
2009,04,20,01,00,6.90
2009,04,20,01,01,6.90
2009,04,20,01,02,6.90
2009,04,20,01,03,6.80
2009,04,20,01,04,6.80
2009,04,20,01,05,6.80
2009,04,20,01,06,6.80
2009,04,20,01,07,6.80
2009,04,20,01,08,6.80
2009,04,20,01,09,6.80
2009,04,20,01,10,6.80
2009,04,20,01,11,6.80
2009,04,20,01,12,6.70
2009,04,20,01,13,6.70
2009,04,20,01,14,6.70
2009,04,20,01,15,6.70
2009,04,20,01,16,6.70
2009,04,20,01,17,6.70
2009,04,20,01,18,6.60
2009,04,20,01,19,6.60
2009,04,20,01,20,6.60
2009,04,20,01,21,6.60
2009,04,20,01,22,6.60
2009,04,20,01,23,6.60
2009,04,20,01,24,6.60
2009,04,20,01,25,6.60
2009,04,20,01,26,6.60
2009,04,20,01,27,6.60
2009,04,20,01,28,6.60
2009,04,20,01,29,6.60
2009,04,20,01,30,6.60
2009,04,20,01,31,6.60
2009,04,20,01,32,6.60
2009,04,20,01,33,6.50
2009,04,20,01,34,6.40
2009,04,20,01,35,6.40
2009,04,20,01,36,6.40
2009,04,20,01,37,6.40
2009,04,20,01,38,6.40
2009,04,20,01,39,6.40
2009,04,20,01,40,6.40
2009,04,20,01,41,6.40
2009,04,20,01,42,6.40
2009,04,20,01,43,6.40
2009,04,20,01,44,6.40
2009,04,20,01,45,6.40
2009,04,20,01,46,6.40
2009,04,20,01,47,6.40
2009,04,20,01,48,6.40
2009,04,20,01,49,6.40
2009,04,20,01,50,6.30
2009,04,20,01,51,6.30
2009,04,20,01,52,6.30
2009,04,20,01,53,6.30
2009,04,20,01,54,6.30
2009,04,20,01,55,6.30
2009,04,20,01,56,6.30
2009,04,20,01,57,6.30
2009,04,20,01,58,6.30
2009,04,20,01,59,6.30
2009,04,20,02,00,6.30
2009,04,20,02,01,6.30
2009,04,20,02,02,6.30
2009,04,20,02,03,6.30
2009,04,20,02,04,6.20
2009,04,20,02,05,6.20
2009,04,20,02,06,6.20
2009,04,20,02,07,6.20
2009,04,20,02,08,6.20
2009,04,20,02,09,6.20
2009,04,20,02,10,6.20
2009,04,20,02,11,6.20
2009,04,20,02,12,6.20
2009,04,20,02,13,6.20
2009,04,20,02,14,6.20
2009,04,20,02,15,6.20
2009,04,20,02,16,6.20
2009,04,20,02,17,6.20
2009,04,20,02,18,6.20
2009,04,20,02,19,6.20
2009,04,20,02,20,6.20
2009,04,20,02,21,6.20
2009,04,20,02,22,6.20
2009,04,20,02,23,6.20
2009,04,20,02,24,6.20
2009,04,20,02,25,6.20
2009,04,20,02,26,6.20
2009,04,20,02,27,6.20
2009,04,20,02,28,6.20
2009,04,20,02,29,6.20
2009,04,20,02,30,6.20
2009,04,20,02,31,6.20
2009,04,20,02,32,6.20
2009,04,20,02,33,6.20
2009,04,20,02,34,6.20
2009,04,20,02,35,6.20
2009,04,20,02,36,6.20
2009,04,20,02,37,6.20
2009,04,20,02,38,6.20
2009,04,20,02,39,6.20
2009,04,20,02,40,6.20
2009,04,20,02,41,6.20
2009,04,20,02,42,6.20
2009,04,20,02,43,6.20
2009,04,20,02,44,6.20
2009,04,20,02,45,6.20
2009,04,20,02,46,6.20
2009,04,20,02,47,6.20
2009,04,20,02,48,6.20
2009,04,20,02,49,6.20
2009,04,20,02,50,6.20
2009,04,20,02,51,6.10
2009,04,20,02,52,6.10
2009,04,20,02,53,6.20
2009,04,20,02,54,6.20
2009,04,20,02,55,6.20
2009,04,20,02,56,6.20
2009,04,20,02,57,6.20
2009,04,20,02,58,6.20
2009,04,20,02,59,6.20
2009,04,20,03,00,6.20
2009,04,20,03,01,6.20
2009,04,20,03,02,6.20
2009,04,20,03,03,6.20
2009,04,20,03,04,6.20
2009,04,20,03,05,6.20
2009,04,20,03,06,6.20
2009,04,20,03,07,6.20
2009,04,20,03,08,6.20
2009,04,20,03,09,6.20
2009,04,20,03,10,6.20
2009,04,20,03,11,6.20
2009,04,20,03,12,6.20
2009,04,20,03,13,6.20
2009,04,20,03,14,6.20
2009,04,20,03,15,6.20
2009,04,20,03,16,6.20
2009,04,20,03,17,6.20
2009,04,20,03,18,6.20
2009,04,20,03,19,6.20
2009,04,20,03,20,6.20
2009,04,20,03,21,6.20
2009,04,20,03,22,6.20
2009,04,20,03,23,6.20
2009,04,20,03,24,6.20
2009,04,20,03,25,6.20
2009,04,20,03,26,6.20
2009,04,20,03,27,6.20
2009,04,20,03,28,6.20
2009,04,20,03,29,6.20
2009,04,20,03,30,6.20
2009,04,20,03,31,6.20
2009,04,20,03,32,6.20
2009,04,20,03,33,6.20
2009,04,20,03,34,6.20
2009,04,20,03,35,6.20
2009,04,20,03,36,6.10
2009,04,20,03,37,6.10
2009,04,20,03,38,6.10
2009,04,20,03,39,6.10
2009,04,20,03,40,6.10
2009,04,20,03,41,6.10
2009,04,20,03,42,6.10
2009,04,20,03,43,6.20
2009,04,20,03,44,6.20
2009,04,20,03,45,6.20
2009,04,20,03,46,6.20
2009,04,20,03,47,6.20
2009,04,20,03,48,6.20
2009,04,20,03,49,6.20
2009,04,20,03,50,6.20
2009,04,20,03,51,6.20
2009,04,20,03,52,6.20
2009,04,20,03,53,6.20
2009,04,20,03,54,6.10
2009,04,20,03,55,6.10
2009,04,20,03,56,6.10
2009,04,20,03,57,6.10
2009,04,20,03,58,6.10
2009,04,20,03,59,6.10
2009,04,20,04,00,6.10
2009,04,20,04,01,6.10
2009,04,20,04,02,6.10
2009,04,20,04,03,6.10
2009,04,20,04,04,6.10
2009,04,20,04,05,6.00
2009,04,20,04,06,6.00
2009,04,20,04,07,6.00
2009,04,20,04,08,6.00
2009,04,20,04,09,6.00
2009,04,20,04,10,6.00
2009,04,20,04,11,6.00
2009,04,20,04,12,5.90
2009,04,20,04,13,5.90
2009,04,20,04,14,5.90
2009,04,20,04,15,5.90
2009,04,20,04,16,5.90
2009,04,20,04,17,5.90
2009,04,20,04,18,5.80
2009,04,20,04,19,5.80
2009,04,20,04,20,5.80
2009,04,20,04,21,5.80
2009,04,20,04,22,5.80
2009,04,20,04,23,5.80
2009,04,20,04,24,5.80
2009,04,20,04,25,5.80
2009,04,20,04,26,5.80
2009,04,20,04,27,5.80
2009,04,20,04,28,5.80
2009,04,20,04,29,5.80
2009,04,20,04,30,5.80
2009,04,20,04,31,5.80
2009,04,20,04,32,5.70
2009,04,20,04,33,5.70
2009,04,20,04,34,5.70
2009,04,20,04,35,5.70
2009,04,20,04,36,5.70
2009,04,20,04,37,5.70
2009,04,20,04,38,5.70
2009,04,20,04,39,5.70
2009,04,20,04,40,5.70
2009,04,20,04,41,5.70
2009,04,20,04,42,5.70
2009,04,20,04,43,5.70
2009,04,20,04,44,5.70
2009,04,20,04,45,5.70
2009,04,20,04,46,5.70
2009,04,20,04,47,5.70
2009,04,20,04,48,5.70
2009,04,20,04,49,5.70
2009,04,20,04,50,5.70
2009,04,20,04,51,5.70
2009,04,20,04,52,5.70
2009,04,20,04,53,5.70
2009,04,20,04,54,5.70
2009,04,20,04,55,5.70
2009,04,20,04,56,5.70
2009,04,20,04,57,5.70
2009,04,20,04,58,5.60
2009,04,20,04,59,5.60
2009,04,20,05,00,5.60
2009,04,20,05,01,5.60
2009,04,20,05,02,5.60
2009,04,20,05,03,5.60
2009,04,20,05,04,5.50
2009,04,20,05,05,5.50
2009,04,20,05,06,5.50
2009,04,20,05,07,5.50
2009,04,20,05,08,5.50
2009,04,20,05,09,5.50
2009,04,20,05,10,5.40
2009,04,20,05,11,5.40
2009,04,20,05,12,5.40
2009,04,20,05,13,5.40
2009,04,20,05,14,5.30
2009,04,20,05,15,5.30
2009,04,20,05,16,5.30
2009,04,20,05,17,5.30
2009,04,20,05,18,5.30
2009,04,20,05,19,5.30
2009,04,20,05,20,5.30
2009,04,20,05,21,5.30
2009,04,20,05,22,5.30
2009,04,20,05,23,5.30
2009,04,20,05,24,5.30
2009,04,20,05,25,5.30
2009,04,20,05,26,5.30
2009,04,20,05,27,5.30
2009,04,20,05,28,5.30
2009,04,20,05,29,5.30
2009,04,20,05,30,5.30
2009,04,20,05,31,5.30
2009,04,20,05,32,5.30
2009,04,20,05,33,5.30
2009,04,20,05,34,5.30
2009,04,20,05,35,5.20
2009,04,20,05,36,5.20
2009,04,20,05,37,5.20
2009,04,20,05,38,5.20
2009,04,20,05,39,5.20
2009,04,20,05,40,5.20
2009,04,20,05,41,5.20
2009,04,20,05,42,5.20
2009,04,20,05,43,5.20
2009,04,20,05,44,5.20
2009,04,20,05,45,5.10
2009,04,20,05,46,5.10
2009,04,20,05,47,5.10
2009,04,20,05,48,5.10
2009,04,20,05,49,5.10
2009,04,20,05,50,5.10
2009,04,20,05,51,5.10
2009,04,20,05,52,5.10
2009,04,20,05,53,5.10
2009,04,20,05,54,5.10
2009,04,20,05,55,5.10
2009,04,20,05,56,5.10
2009,04,20,05,57,5.00
2009,04,20,05,58,4.90
2009,04,20,05,59,4.90
2009,04,20,06,00,4.90
2009,04,20,06,01,4.90
2009,04,20,06,02,4.90
2009,04,20,06,03,4.90
2009,04,20,06,04,4.90
2009,04,20,06,05,4.90
2009,04,20,06,06,4.90
2009,04,20,06,07,4.90
2009,04,20,06,08,4.90
2009,04,20,06,09,4.90
2009,04,20,06,10,4.90
2009,04,20,06,11,4.90
2009,04,20,06,12,4.90
2009,04,20,06,13,4.90
2009,04,20,06,14,4.90
2009,04,20,06,15,4.90
2009,04,20,06,16,4.90
2009,04,20,06,17,4.90
2009,04,20,06,18,4.90
2009,04,20,06,19,4.90
2009,04,20,06,20,4.90
2009,04,20,06,21,4.90
2009,04,20,06,22,4.90
2009,04,20,06,23,4.90
2009,04,20,06,24,4.90
2009,04,20,06,25,4.90
2009,04,20,06,26,4.90
2009,04,20,06,27,4.90
2009,04,20,06,28,4.90
2009,04,20,06,29,4.90
2009,04,20,06,30,4.90
2009,04,20,06,31,4.90
2009,04,20,06,32,4.90
2009,04,20,06,33,4.90
2009,04,20,06,34,4.90
2009,04,20,06,35,4.90
2009,04,20,06,36,4.90
2009,04,20,06,37,4.90
2009,04,20,06,38,4.90
2009,04,20,06,39,4.90
2009,04,20,06,40,4.90
2009,04,20,06,41,4.90
2009,04,20,06,42,4.90
2009,04,20,06,43,4.90
2009,04,20,06,44,4.90
2009,04,20,06,45,4.90
2009,04,20,06,46,4.90
2009,04,20,06,47,4.90
2009,04,20,06,48,5.00
2009,04,20,06,49,5.10
2009,04,20,06,50,5.10
2009,04,20,06,51,5.10
2009,04,20,06,52,5.10
2009,04,20,06,53,5.10
2009,04,20,06,54,5.10
2009,04,20,06,55,5.10
2009,04,20,06,56,5.10
2009,04,20,06,57,5.10
2009,04,20,06,58,5.10
2009,04,20,06,59,5.20
2009,04,20,07,00,5.20
2009,04,20,07,01,5.20
2009,04,20,07,02,5.20
2009,04,20,07,03,5.20
2009,04,20,07,04,5.30
2009,04,20,07,05,5.30
2009,04,20,07,06,5.30
2009,04,20,07,07,5.30
2009,04,20,07,08,5.30
2009,04,20,07,09,5.30
2009,04,20,07,10,5.30
2009,04,20,07,11,5.30
2009,04,20,07,12,5.30
2009,04,20,07,13,5.40
2009,04,20,07,14,5.40
2009,04,20,07,15,5.40
2009,04,20,07,16,5.40
2009,04,20,07,17,5.50
2009,04,20,07,18,5.50
2009,04,20,07,19,5.50
2009,04,20,07,20,5.50
2009,04,20,07,21,5.60
2009,04,20,07,22,5.60
2009,04,20,07,23,5.70
2009,04,20,07,24,5.70
2009,04,20,07,25,5.70
2009,04,20,07,26,5.70
2009,04,20,07,27,5.70
2009,04,20,07,28,5.70
2009,04,20,07,29,5.80
2009,04,20,07,30,5.80
2009,04,20,07,31,5.90
2009,04,20,07,32,5.90
2009,04,20,07,33,6.00
2009,04,20,07,34,6.00
2009,04,20,07,35,6.10
2009,04,20,07,36,6.20
2009,04,20,07,37,6.20
2009,04,20,07,38,6.30
2009,04,20,07,39,6.30
2009,04,20,07,40,6.40
2009,04,20,07,41,6.60
2009,04,20,07,42,6.60
2009,04,20,07,43,6.70
2009,04,20,07,44,6.80
2009,04,20,07,45,6.90
2009,04,20,07,46,7.00
2009,04,20,07,47,7.10
2009,04,20,07,48,7.20
2009,04,20,07,49,7.30
2009,04,20,07,50,7.30
2009,04,20,07,51,7.50
2009,04,20,07,52,7.60
2009,04,20,07,53,7.70
2009,04,20,07,54,7.80
2009,04,20,07,55,7.90
2009,04,20,07,56,8.00
2009,04,20,07,57,8.10
2009,04,20,07,58,8.20
2009,04,20,07,59,8.30
2009,04,20,08,00,8.50
2009,04,20,08,01,8.60
2009,04,20,08,02,8.70
2009,04,20,08,03,8.80
2009,04,20,08,04,8.90
2009,04,20,08,05,9.00
2009,04,20,08,06,9.00
2009,04,20,08,07,9.20
2009,04,20,08,08,9.20
2009,04,20,08,09,9.40
2009,04,20,08,10,9.50
2009,04,20,08,11,9.60
2009,04,20,08,12,9.70
2009,04,20,08,13,9.70
2009,04,20,08,14,9.80
2009,04,20,08,15,9.90
2009,04,20,08,16,10.00
2009,04,20,08,17,10.10
2009,04,20,08,18,10.20
2009,04,20,08,19,10.30
2009,04,20,08,20,10.40
2009,04,20,08,21,10.50
2009,04,20,08,22,10.60
2009,04,20,08,23,10.70
2009,04,20,08,24,10.90
2009,04,20,08,25,11.00
2009,04,20,08,26,11.10
2009,04,20,08,27,11.20
2009,04,20,08,28,11.40
2009,04,20,08,29,11.50
2009,04,20,08,30,11.60
2009,04,20,08,31,11.70
2009,04,20,08,32,11.80
2009,04,20,08,33,11.90
2009,04,20,08,34,12.00
2009,04,20,08,35,12.10
2009,04,20,08,36,12.20
2009,04,20,08,37,12.30
2009,04,20,08,38,12.40
2009,04,20,08,39,12.50
2009,04,20,08,40,12.60
2009,04,20,08,41,12.70
2009,04,20,08,42,12.80
2009,04,20,08,43,13.00
2009,04,20,08,44,13.10
2009,04,20,08,45,13.20
2009,04,20,08,46,13.30
2009,04,20,08,47,13.40
2009,04,20,08,48,13.50
2009,04,20,08,49,13.60
2009,04,20,08,50,13.70
2009,04,20,08,51,13.70
2009,04,20,08,52,13.80
2009,04,20,08,53,13.90
2009,04,20,08,54,13.90
2009,04,20,08,55,14.00
2009,04,20,08,56,14.00
2009,04,20,08,57,14.10
2009,04,20,08,58,14.20
2009,04,20,08,59,14.20
2009,04,20,09,00,14.40
2009,04,20,09,01,14.50
2009,04,20,09,02,14.60
2009,04,20,09,03,14.60
2009,04,20,09,04,14.70
2009,04,20,09,05,14.80
2009,04,20,09,06,14.90
2009,04,20,09,07,15.00
2009,04,20,09,08,15.10
2009,04,20,09,09,15.20
2009,04,20,09,10,15.30
2009,04,20,09,11,15.40
2009,04,20,09,12,15.50
2009,04,20,09,13,15.60
2009,04,20,09,14,15.60
2009,04,20,09,15,15.60
2009,04,20,09,16,15.70
2009,04,20,09,17,15.70
2009,04,20,09,18,15.80
2009,04,20,09,19,15.80
2009,04,20,09,20,15.90
2009,04,20,09,21,16.00
2009,04,20,09,22,16.10
2009,04,20,09,23,16.10
2009,04,20,09,24,16.10
2009,04,20,09,25,16.20
2009,04,20,09,26,16.30
2009,04,20,09,27,16.30
2009,04,20,09,28,16.40
2009,04,20,09,29,16.50
2009,04,20,09,30,16.60
2009,04,20,09,31,16.60
2009,04,20,09,32,16.60
2009,04,20,09,33,16.50
2009,04,20,09,34,16.40
2009,04,20,09,35,16.30
2009,04,20,09,36,16.30
2009,04,20,09,37,16.30
2009,04,20,09,38,16.20
2009,04,20,09,39,16.20
2009,04,20,09,40,16.10
2009,04,20,09,41,16.20
2009,04,20,09,42,16.10
2009,04,20,09,43,16.20
2009,04,20,09,44,16.30
2009,04,20,09,45,16.30
2009,04,20,09,46,16.40
2009,04,20,09,47,16.40
2009,04,20,09,48,16.40
2009,04,20,09,49,16.60
2009,04,20,09,50,16.70
2009,04,20,09,51,16.70
2009,04,20,09,52,16.70
2009,04,20,09,53,16.70
2009,04,20,09,54,16.70
2009,04,20,09,55,16.70
2009,04,20,09,56,16.70
2009,04,20,09,57,16.70
2009,04,20,09,58,16.70
2009,04,20,09,59,16.60
2009,04,20,10,00,16.40
2009,04,20,10,01,16.40
2009,04,20,10,02,16.40
2009,04,20,10,03,16.50
2009,04,20,10,04,16.60
2009,04,20,10,05,16.70
2009,04,20,10,06,16.80
2009,04,20,10,07,16.80
2009,04,20,10,08,16.90
2009,04,20,10,09,16.90
2009,04,20,10,10,16.90
2009,04,20,10,11,16.90
2009,04,20,10,12,16.90
2009,04,20,10,13,16.90
2009,04,20,10,14,16.80
2009,04,20,10,15,16.80
2009,04,20,10,16,16.80
2009,04,20,10,17,16.70
2009,04,20,10,18,16.60
2009,04,20,10,19,16.60
2009,04,20,10,20,16.60
2009,04,20,10,21,16.70
2009,04,20,10,22,16.70
2009,04,20,10,23,16.90
2009,04,20,10,24,16.90
2009,04,20,10,25,16.80
2009,04,20,10,26,16.70
2009,04,20,10,27,16.60
2009,04,20,10,28,16.50
2009,04,20,10,29,16.40
2009,04,20,10,30,16.60
2009,04,20,10,31,16.60
2009,04,20,10,32,16.60
2009,04,20,10,33,16.70
2009,04,20,10,34,16.70
2009,04,20,10,35,16.90
2009,04,20,10,36,17.00
2009,04,20,10,37,17.00
2009,04,20,10,38,17.00
2009,04,20,10,39,17.00
2009,04,20,10,40,17.10
2009,04,20,10,41,17.10
2009,04,20,10,42,17.20
2009,04,20,10,43,17.20
2009,04,20,10,44,17.10
2009,04,20,10,45,17.00
2009,04,20,10,46,16.80
2009,04,20,10,47,16.80
2009,04,20,10,48,16.80
2009,04,20,10,49,16.80
2009,04,20,10,50,16.80
2009,04,20,10,51,16.80
2009,04,20,10,52,16.90
2009,04,20,10,53,17.00
2009,04,20,10,54,17.00
2009,04,20,10,55,17.10
2009,04,20,10,56,17.10
2009,04,20,10,57,17.30
2009,04,20,10,58,17.30
2009,04,20,10,59,17.50
2009,04,20,11,00,17.50
2009,04,20,11,01,17.50
2009,04,20,11,02,17.50
2009,04,20,11,03,17.50
2009,04,20,11,04,17.60
2009,04,20,11,05,17.60
2009,04,20,11,06,17.60
2009,04,20,11,07,17.70
2009,04,20,11,08,17.70
2009,04,20,11,09,17.60
2009,04,20,11,10,17.50
2009,04,20,11,11,17.50
2009,04,20,11,12,17.50
2009,04,20,11,13,17.50
2009,04,20,11,14,17.40
2009,04,20,11,15,17.30
2009,04,20,11,16,17.30
2009,04,20,11,17,17.30
2009,04,20,11,18,17.20
2009,04,20,11,19,17.30
2009,04,20,11,20,17.40
2009,04,20,11,21,17.50
2009,04,20,11,22,17.50
2009,04,20,11,23,17.50
2009,04,20,11,24,17.50
2009,04,20,11,25,17.50
2009,04,20,11,26,17.50
2009,04,20,11,27,17.50
2009,04,20,11,28,17.50
2009,04,20,11,29,17.40
2009,04,20,11,30,17.40
2009,04,20,11,31,17.40
2009,04,20,11,32,17.30
2009,04,20,11,33,17.20
2009,04,20,11,34,17.10
2009,04,20,11,35,17.00
2009,04,20,11,36,17.00
2009,04,20,11,37,17.00
2009,04,20,11,38,17.10
2009,04,20,11,39,17.10
2009,04,20,11,40,17.10
2009,04,20,11,41,17.00
2009,04,20,11,42,17.00
2009,04,20,11,43,17.00
2009,04,20,11,44,16.90
2009,04,20,11,45,16.90
2009,04,20,11,46,17.00
2009,04,20,11,47,16.90
2009,04,20,11,48,17.00
2009,04,20,11,49,17.00
2009,04,20,11,50,17.00
2009,04,20,11,51,17.10
2009,04,20,11,52,17.30
2009,04,20,11,53,17.30
2009,04,20,11,54,17.30
2009,04,20,11,55,17.40
2009,04,20,11,56,17.50
2009,04,20,11,57,17.50
2009,04,20,11,58,17.50
2009,04,20,11,59,17.60
2009,04,20,12,00,17.50
2009,04,20,12,01,17.50
2009,04,20,12,02,17.40
2009,04,20,12,03,17.30
2009,04,20,12,04,17.30
2009,04,20,12,05,17.30
2009,04,20,12,06,17.30
2009,04,20,12,07,17.40
2009,04,20,12,08,17.50
2009,04,20,12,09,17.50
2009,04,20,12,10,17.60
2009,04,20,12,11,17.60
2009,04,20,12,12,17.60
2009,04,20,12,13,17.70
2009,04,20,12,14,17.80
2009,04,20,12,15,17.90
2009,04,20,12,16,17.90
2009,04,20,12,17,17.90
2009,04,20,12,18,18.00
2009,04,20,12,19,18.20
2009,04,20,12,20,18.20
2009,04,20,12,21,18.20
2009,04,20,12,22,18.20
2009,04,20,12,23,18.20
2009,04,20,12,24,18.20
2009,04,20,12,25,18.20
2009,04,20,12,26,18.20
2009,04,20,12,27,18.20
2009,04,20,12,28,18.20
2009,04,20,12,29,18.10
2009,04,20,12,30,18.10
2009,04,20,12,31,18.20
2009,04,20,12,32,18.10
2009,04,20,12,33,17.90
2009,04,20,12,34,17.80
2009,04,20,12,35,17.90
2009,04,20,12,36,17.90
2009,04,20,12,37,17.90
2009,04,20,12,38,17.90
2009,04,20,12,39,18.00
2009,04,20,12,40,18.20
2009,04,20,12,41,18.30
2009,04,20,12,42,18.40
2009,04,20,12,43,18.50
2009,04,20,12,44,18.50
2009,04,20,12,45,18.40
2009,04,20,12,46,18.20
2009,04,20,12,47,18.10
2009,04,20,12,48,18.00
2009,04,20,12,49,17.90
2009,04,20,12,50,17.90
2009,04,20,12,51,18.00
2009,04,20,12,52,18.10
2009,04,20,12,53,18.20
2009,04,20,12,54,18.20
2009,04,20,12,55,18.20
2009,04,20,12,56,18.20
2009,04,20,12,57,18.20
2009,04,20,12,58,18.10
2009,04,20,12,59,18.00
2009,04,20,13,00,17.90
2009,04,20,13,01,17.90
2009,04,20,13,02,18.00
2009,04,20,13,03,18.10
2009,04,20,13,04,18.10
2009,04,20,13,05,18.20
2009,04,20,13,06,18.20
2009,04,20,13,07,18.30
2009,04,20,13,08,18.20
2009,04,20,13,09,18.20
2009,04,20,13,10,18.20
2009,04,20,13,11,18.20
2009,04,20,13,12,18.20
2009,04,20,13,13,18.30
2009,04,20,13,14,18.30
2009,04,20,13,15,18.40
2009,04,20,13,16,18.50
2009,04,20,13,17,18.60
2009,04,20,13,18,18.60
2009,04,20,13,19,18.60
2009,04,20,13,20,18.50
2009,04,20,13,21,18.50
2009,04,20,13,22,18.50
2009,04,20,13,23,18.50
2009,04,20,13,24,18.50
2009,04,20,13,25,18.60
2009,04,20,13,26,18.70
2009,04,20,13,27,18.80
2009,04,20,13,28,18.90
2009,04,20,13,29,18.90
2009,04,20,13,30,19.10
2009,04,20,13,31,19.10
2009,04,20,13,32,19.20
2009,04,20,13,33,19.30
2009,04,20,13,34,19.40
2009,04,20,13,35,19.40
2009,04,20,13,36,19.40
2009,04,20,13,37,19.50
2009,04,20,13,38,19.60
2009,04,20,13,39,19.70
2009,04,20,13,40,19.80
2009,04,20,13,41,19.80
2009,04,20,13,42,19.70
2009,04,20,13,43,19.50
2009,04,20,13,44,19.40
2009,04,20,13,45,19.30
2009,04,20,13,46,19.20
2009,04,20,13,47,19.20
2009,04,20,13,48,19.20
2009,04,20,13,49,19.30
2009,04,20,13,50,19.40
2009,04,20,13,51,19.40
2009,04,20,13,52,19.40
2009,04,20,13,53,19.40
2009,04,20,13,54,19.40
2009,04,20,13,55,19.40
2009,04,20,13,56,19.40
2009,04,20,13,57,19.40
2009,04,20,13,58,19.40
2009,04,20,13,59,19.50
2009,04,20,14,00,19.60
2009,04,20,14,01,19.50
2009,04,20,14,02,19.40
2009,04,20,14,03,19.40
2009,04,20,14,04,19.30
2009,04,20,14,05,19.20
2009,04,20,14,06,19.20
2009,04,20,14,07,19.30
2009,04,20,14,08,19.40
2009,04,20,14,09,19.40
2009,04,20,14,10,19.40
2009,04,20,14,11,19.50
2009,04,20,14,12,19.60
2009,04,20,14,13,19.60
2009,04,20,14,14,19.70
2009,04,20,14,15,19.80
2009,04,20,14,16,20.00
2009,04,20,14,17,20.10
2009,04,20,14,18,20.30
2009,04,20,14,19,20.50
2009,04,20,14,20,20.50
2009,04,20,14,21,20.50
2009,04,20,14,22,20.40
2009,04,20,14,23,20.40
2009,04,20,14,24,20.30
2009,04,20,14,25,20.30
2009,04,20,14,26,20.30
2009,04,20,14,27,20.40
2009,04,20,14,28,20.50
2009,04,20,14,29,20.50
2009,04,20,14,30,20.50
2009,04,20,14,31,20.60
2009,04,20,14,32,20.50
2009,04,20,14,33,20.50
2009,04,20,14,34,20.40
2009,04,20,14,35,20.40
2009,04,20,14,36,20.40
2009,04,20,14,37,20.40
2009,04,20,14,38,20.20
2009,04,20,14,39,20.00
2009,04,20,14,40,19.90
2009,04,20,14,41,19.90
2009,04,20,14,42,19.90
2009,04,20,14,43,19.90
2009,04,20,14,44,19.90
2009,04,20,14,45,20.10
2009,04,20,14,46,20.20
2009,04,20,14,47,20.30
2009,04,20,14,48,20.50
2009,04,20,14,49,20.60
2009,04,20,14,50,20.70
2009,04,20,14,51,20.70
2009,04,20,14,52,20.80
2009,04,20,14,53,20.80
2009,04,20,14,54,20.80
2009,04,20,14,55,20.90
2009,04,20,14,56,20.90
2009,04,20,14,57,20.90
2009,04,20,14,58,20.90
2009,04,20,14,59,21.00
2009,04,20,15,00,21.10
2009,04,20,15,01,21.30
2009,04,20,15,02,21.50
2009,04,20,15,03,21.70
2009,04,20,15,04,21.60
2009,04,20,15,05,21.60
2009,04,20,15,06,21.50
2009,04,20,15,07,21.30
2009,04,20,15,08,21.30
2009,04,20,15,09,21.30
2009,04,20,15,10,21.30
2009,04,20,15,11,21.30
2009,04,20,15,12,21.30
2009,04,20,15,13,21.30
2009,04,20,15,14,21.30
2009,04,20,15,15,21.20
2009,04,20,15,16,21.20
2009,04,20,15,17,21.10
2009,04,20,15,18,21.10
2009,04,20,15,19,21.20
2009,04,20,15,20,21.20
2009,04,20,15,21,21.10
2009,04,20,15,22,21.10
2009,04,20,15,23,21.10
2009,04,20,15,24,21.10
2009,04,20,15,25,21.10
2009,04,20,15,26,21.10
2009,04,20,15,27,21.00
2009,04,20,15,28,21.00
2009,04,20,15,29,21.00
2009,04,20,15,30,21.00
2009,04,20,15,31,21.00
2009,04,20,15,32,21.10
2009,04,20,15,33,21.10
2009,04,20,15,34,21.10
2009,04,20,15,35,21.10
2009,04,20,15,36,21.10
2009,04,20,15,37,21.10
2009,04,20,15,38,21.10
2009,04,20,15,39,21.00
2009,04,20,15,40,21.00
2009,04,20,15,41,21.00
2009,04,20,15,42,20.90
2009,04,20,15,43,20.80
2009,04,20,15,44,20.80
2009,04,20,15,45,20.80
2009,04,20,15,46,20.80
2009,04,20,15,47,20.80
2009,04,20,15,48,20.80
2009,04,20,15,49,20.80
2009,04,20,15,50,20.80
2009,04,20,15,51,20.90
2009,04,20,15,52,20.90
2009,04,20,15,53,21.00
2009,04,20,15,54,21.00
2009,04,20,15,55,21.00
2009,04,20,15,56,21.00
2009,04,20,15,57,21.00
2009,04,20,15,58,20.90
2009,04,20,15,59,20.90
2009,04,20,16,00,20.80
2009,04,20,16,01,20.70
2009,04,20,16,02,20.50
2009,04,20,16,03,20.30
2009,04,20,16,04,20.20
2009,04,20,16,05,20.10
2009,04,20,16,06,20.10
2009,04,20,16,07,20.10
2009,04,20,16,08,20.10
2009,04,20,16,09,20.20
2009,04,20,16,10,20.20
2009,04,20,16,11,20.20
2009,04,20,16,12,20.30
2009,04,20,16,13,20.30
2009,04,20,16,14,20.30
2009,04,20,16,15,20.40
2009,04,20,16,16,20.40
2009,04,20,16,17,20.40
2009,04,20,16,18,20.40
2009,04,20,16,19,20.40
2009,04,20,16,20,20.40
2009,04,20,16,21,20.50
2009,04,20,16,22,20.60
2009,04,20,16,23,20.60
2009,04,20,16,24,20.70
2009,04,20,16,25,20.60
2009,04,20,16,26,20.70
2009,04,20,16,27,20.70
2009,04,20,16,28,20.60
2009,04,20,16,29,20.60
2009,04,20,16,30,20.60
2009,04,20,16,31,20.60
2009,04,20,16,32,20.60
2009,04,20,16,33,20.60
2009,04,20,16,34,20.50
2009,04,20,16,35,20.50
2009,04,20,16,36,20.40
2009,04,20,16,37,20.40
2009,04,20,16,38,20.40
2009,04,20,16,39,20.30
2009,04,20,16,40,20.20
2009,04,20,16,41,20.20
2009,04,20,16,42,20.20
2009,04,20,16,43,20.20
2009,04,20,16,44,20.30
2009,04,20,16,45,20.20
2009,04,20,16,46,20.20
2009,04,20,16,47,20.20
2009,04,20,16,48,20.20
2009,04,20,16,49,20.20
2009,04,20,16,50,20.20
2009,04,20,16,51,20.10
2009,04,20,16,52,20.00
2009,04,20,16,53,19.90
2009,04,20,16,54,19.90
2009,04,20,16,55,19.90
2009,04,20,16,56,19.90
2009,04,20,16,57,19.90
2009,04,20,16,58,19.90
2009,04,20,16,59,19.90
2009,04,20,17,00,19.90
2009,04,20,17,01,19.90
2009,04,20,17,02,19.90
2009,04,20,17,03,19.90
2009,04,20,17,04,19.90
2009,04,20,17,05,19.90
2009,04,20,17,06,19.80
2009,04,20,17,07,19.80
2009,04,20,17,08,19.80
2009,04,20,17,09,19.70
2009,04,20,17,10,19.60
2009,04,20,17,11,19.60
2009,04,20,17,12,19.60
2009,04,20,17,13,19.60
2009,04,20,17,14,19.60
2009,04,20,17,15,19.60
2009,04,20,17,16,19.60
2009,04,20,17,17,19.60
2009,04,20,17,18,19.60
2009,04,20,17,19,19.50
2009,04,20,17,20,19.50
2009,04,20,17,21,19.50
2009,04,20,17,22,19.40
2009,04,20,17,23,19.40
2009,04,20,17,24,19.40
2009,04,20,17,25,19.40
2009,04,20,17,26,19.40
2009,04,20,17,27,19.40
2009,04,20,17,28,19.40
2009,04,20,17,29,19.40
2009,04,20,17,30,19.40
2009,04,20,17,31,19.30
2009,04,20,17,32,19.30
2009,04,20,17,33,19.30
2009,04,20,17,34,19.30
2009,04,20,17,35,19.30
2009,04,20,17,36,19.30
2009,04,20,17,37,19.30
2009,04,20,17,38,19.30
2009,04,20,17,39,19.40
2009,04,20,17,40,19.40
2009,04,20,17,41,19.40